Location: Unspecified
(0.0000°N, 0.0000°E)
Time: 01:47:28
(UTC+00:00)

Envisat - Pass Details

Date: 17 March 2018
Orbit: 764 x 766 km, 98.2° (Epoch: 17 June)

Event Time Altitude Azimuth Distance (km) Brightness Sun altitude
Exits shadow 20:39:06 20° 302° (WNW) 1,685 5.2 -37.7°
Drops below altitude 10° 20:41:04 10° 319° (NW) 2,291 5.8 -38.2°
Sets 20:43:36 0° 329° (NNW) 3,214 6.5 -38.8°
